Home   Weather   Grand Rapids   Past weeks

Flag for USA Past Weather in Grand Rapids, Michigan, USA — Yesterday and Last 2 Weeks

Now
77 °F

Passing clouds.


Feels Like: 79 °F
Forecast: 61 / 85 °F
Wind: 7 mph from Southwest

Location: Kent County International Airport

Current Time: Aug 16, 2017 at 11:24:03 am

Latest Report: Aug 16, 2017 at 10:53 am


Visibility: 10 mi

Pressure: 30.03 "Hg

Humidity: 69%

Dew Point: 66 °F

Location of Grand RapidsLocation

Past Weather in Grand Rapids — Graph

°F

Grand Rapids Temperature Yesterday

Maximum temperature yesterday: 82 °F (at 3:53 pm)
Minimum temperature yesterday: 64 °F (at 5:53 am)
Average temperature yesterday: 72 °F

High & Low Weather Summary for the Past Weeks

 TemperatureHumidityPressure
High86 °F (Aug 1, 4:53 pm)100% (Aug 3, 6:38 am)30.18 "Hg (Aug 3, 6:38 am)
Low52 °F (Aug 8, 5:53 am)35% (Aug 9, 3:53 pm)29.74 "Hg (Aug 4, 5:53 am)
Average69 °F74%29.99 "Hg
* Reported Aug 1 9:53 am — Aug 16 9:53 am, Grand Rapids. Weather by CustomWeather, © 2017

Note: Actual official high and low records may vary slightly from our data, if they occured in-between our weather recording intervals... More about our weather records

Advertising

Grand Rapids Weather History for the Previous 24 Hours

Scroll right to see more
 ConditionsComfort  
Time TempWeatherWind HumidityBarometerVisibility
9:53 am
Wed, Aug 16
73 °FPassing clouds.6 mph76%30.03 "Hg10 mi
8:53 am68 °FScattered clouds.8 mph87%30.04 "Hg10 mi
7:53 am64 °FBroken clouds.5 mph94%30.04 "Hg8 mi
6:53 am61 °FScattered clouds.5 mph97%30.02 "Hg10 mi
5:53 am62 °FPassing clouds.6 mph93%30.01 "Hg10 mi
4:53 am63 °FPassing clouds.6 mph93%30.00 "Hg10 mi
3:53 am62 °FPassing clouds.3 mph96%30.00 "Hg10 mi
2:53 am63 °FClear.3 mph93%29.99 "Hg10 mi
1:53 am64 °FClear.5 mph90%29.99 "Hg10 mi
12:53 am65 °FClear.No wind87%29.98 "Hg10 mi
11:53 pm
Tue, Aug 15
67 °FPassing clouds.5 mph81%29.98 "Hg10 mi
10:53 pm69 °FPassing clouds.7 mph76%29.97 "Hg10 mi
9:53 pm71 °FPassing clouds.No wind68%29.96 "Hg10 mi
8:53 pm73 °FPartly cloudy.6 mph64%29.93 "Hg10 mi
7:53 pm77 °FPartly sunny.8 mph54%29.93 "Hg10 mi
6:53 pm79 °FBroken clouds.6 mph50%29.92 "Hg10 mi
5:53 pm80 °FPartly sunny.3 mph47%29.92 "Hg10 mi
4:53 pm82 °FPartly sunny.9 mph46%29.92 "Hg10 mi
3:53 pm82 °FPartly sunny.6 mph46%29.91 "Hg10 mi
2:53 pm80 °FPartly sunny.No wind51%29.91 "Hg10 mi
1:53 pm79 °FPartly sunny.7 mph50%29.92 "Hg10 mi
12:53 pm78 °FBroken clouds.No wind56%29.92 "Hg10 mi
11:53 am76 °FScattered clouds.5 mph64%29.90 "Hg10 mi
Weather by CustomWeather, © 2017

See weather overviewHow to use our weather pages